Location: Bath
(51.4030°N, 2.3976°W)
Time: 03:49:17
(UTC+00:00)

ISS - Visible Passes

Search period start: 19 January 2019 00:00
Search period end: 29 January 2019 00:00
Orbit: 404 x 411 km, 51.6° (Epoch: 19 January)

Date Brightness Start Highest point End Pass type
(mag) Time Alt. Az. Time Alt. Az. Time Alt. Az.
23 Jan -1.4 19:12:38 10° SSW 19:13:39 17° SSW 19:13:39 17° SSW visible
24 Jan -2.0 18:21:55 10° S 18:24:17 18° SE 18:24:35 18° SE visible
24 Jan -0.5 19:57:06 10° WSW 19:57:19 11° WSW 19:57:19 11° WSW visible
25 Jan -1.4 17:31:48 10° SSE 17:33:07 12° SE 17:34:26 10° ESE visible
25 Jan -2.6 19:05:51 10° SW 19:08:09 35° SSW 19:08:09 35° SSW visible
26 Jan -2.7 18:14:43 10° SW 18:17:43 32° SSE 18:18:57 24° ESE visible
26 Jan -0.9 19:50:44 10° WSW 19:51:40 18° WSW 19:51:40 18° WSW visible
27 Jan -2.1 17:23:49 10° SSW 17:26:26 22° SE 17:29:04 10° E visible
27 Jan -3.7 18:59:19 10° WSW 19:02:23 67° SSW 19:02:23 67° SSW visible
28 Jan -3.4 18:07:58 10° SW 18:11:13 53° SSE 18:13:04 22° E visible
28 Jan -1.3 19:44:23 10° W 19:45:47 23° W 19:45:47 23° W visible
